National Weather Service Hourly Weather Roundup
NOAA NWS Hourly Roundups by Site
NOAA NWS Hourly Roundups by Site
Regional Weather Roundup for Sacramento, CA

To Select Another Site Choose from List

Select Site:  

000
ASUS46 KSTO 110415
RWRCA

NORTHERN AND CENTRAL CA REGIONAL WEATHER ROUNDUP
NATIONAL WEATHER SERVICE SACRAMENTO CA
900 PM PDT MON MAY 10 2021

NOTE: FAIR INDICATES FEW OR NO CLOUDS BELOW 12,000 FEET WITH NO
SIGNIFICANT WEATHER AND/OR OBSTRUCTIONS TO VISIBILITY.

CAZ001-003-110500-
NORTHWEST AREA

CITY           SKY/WX    TMP DP  RH WIND       PRES   REMARKS
CRESCENT CITY  CLEAR     50  45  83 N16G24    30.01S HAZE
UKIAH          CLEAR     70  36  28 CALM      29.88R
$$

CAZ006-505>513-110500-
BAY AREA

CITY           SKY/WX    TMP DP  RH WIND       PRES   REMARKS
SANTA ROSA     CLEAR     70  40  33 SE5       29.84R
SAN RAFAEL     N/A       73  MM  MM MISG
NAPA           CLEAR     68  51  54 S10       29.83R
CONCORD        CLEAR     78  36  21 SW7       29.84R
OAKLAND CITY   N/A       67  MM  MM MISG
OAKLAND        PTCLDY    61  49  64 NW6       29.88R
SAN FRAN CITY  N/A       58  MM  63 MISG
SAN FRAN ARPT  CLEAR     61  46  57 NW15      29.87R
LIVERMORE      CLEAR     71  39  31 S3        29.86R
HAYWARD        CLEAR     64  52  64 W5        29.87R
SAN JOSE ARPT  CLEAR     69  38  32 NW7       29.87R
$$
CAZ034-037-514>518-110500-
CENTRAL COAST

CITY           SKY/WX    TMP DP  RH WIND       PRES   REMARKS
WATSONVILLE    CLOUDY    50  48  93 CALM      29.93R
SALINAS        CLOUDY    55  49  80 NW9       29.92R
MONTEREY       CLEAR     57  49  74 CALM      29.93R
SAN LUIS OBISP CLEAR     52  49  89 W3        29.93R
SANTA MARIA    CLEAR     53  48  83 NW6       29.93R
HALF MOON BAY  FAIR      50  46  87 CALM      29.92R FOG
$$
CAZ015-016-110500-
NORTHERN SACRAMENTO VALLEY

CITY           SKY/WX    TMP DP  RH WIND       PRES   REMARKS
REDDING        CLEAR     78  32  18 NW6       29.86R
RED BLUFF      CLEAR     77  28  16 NW8       29.85R
OROVILLE       CLEAR     80  29  15 NW6       29.82R
$$
CAZ016>018-110500-
SOUTHERN SACRAMENTO VALLEY

CITY           SKY/WX    TMP DP  RH WIND       PRES   REMARKS
AUBURN         CLEAR     63  37  39 MISG      29.87R
BEALE AFB      CLEAR     70  43  37 NW3       29.79R
LINCOLN        FAIR      72  41  33 NW6       29.79S
MARYSVILLE     CLEAR     77  37  23 NW10      29.80R
SAC INTL ARPT  CLEAR     76  39  26 NW7       29.80R
MATHER AIRPORT CLEAR     81  34  18 N6        29.79R
DOWNTOWN SAC   N/A       80  MM  MM MISG
SAC EXEC ARPT  CLEAR     78  36  21 W5        29.80R
VACAVILLE      CLEAR     72  30  21 CALM      29.83R
TRAVIS AFB     CLEAR     71  36  28 W5        29.82R
$$
CAZ019>021-110500-
SAN JOAQUIN VALLEY

CITY           SKY/WX    TMP DP  RH WIND       PRES   REMARKS
STOCKTON       CLEAR     76  40  27 W17       29.81R
MODESTO        CLEAR     79  37  22 NW15      29.80R
MERCED         CLEAR     80  35  19 NW9       29.80R
LEMOORE        CLEAR     73  42  32 NW8       29.81R
FRESNO         CLEAR     82  39  21 NW8       29.81R
HANFORD        CLEAR     70  55  59 CALM      29.81R
PORTERVILLE    CLEAR     76  48  37 NW6       29.82R
BAKERSFIELD    CLEAR     82  35  18 N6        29.81R
$$
CAZ011-012-071-110500-
NORTHERN MOUNTAINS

CITY           SKY/WX    TMP DP  RH WIND       PRES   REMARKS
YREKA          CLEAR     59  33  37 N10       30.04R
MOUNT SHASTA   CLEAR     57  31  37 NE3       30.04R
ALTURAS        CLEAR     54  21  27 CALM      30.10R
$$
CAZ011-012-071-110500-
SIERRA NEVADA MTNS

CITY           SKY/WX    TMP DP  RH WIND       PRES   REMARKS
BLUE CANYON    CLEAR     58  17  20 E6        30.08R
TRUCKEE        CLEAR     45  16  31 SE3       30.13R
TAHOE VLY ARPT CLEAR     49  19  30 CALM      30.12R
MAMMOTH LAKES  FAIR      50   0  12 W12       30.16R
$$


 

View Past Reports for Sacramento, CA.

Products Courtesy of NOAA-NWS
NWS Information Parsing Script by Ken True at Saratoga Weather - Script by SE Lincoln Weather.

powered by Cumulus v1.9.3 (1059)
Ambient Weather VWS v14.00
Top Website Map Copyright © 2007 - 2021 Foresthillweather.com Never base important decisions on this or any weather information obtained from the Internet